Wind_Speed
42 44 45 45 47 48 49 49 49 49 50 51 52 52 52 52 52 51 51 50 49 48 47 47 47 46 45 45 44 44 43 42 41 40 39 38 37 38 37 37 36 36 35 35
39 41 43 44 45 46 47 48 48 48 48 51 51 52 52 53 53 52 51 52 51 49 48 49 49 48 48 47 47 46 46 45 45 43 42 42 41 41 40 39 39 39 39 38
37 38 40 41 43 44 46 46 46 46 47 49 51 52 53 54 54 54 52 52 54 52 50 50 50 50 49 49 49 49 48 48 48 46 46 45 45 44 43 42 42 42 42 42
33 35 37 39 42 43 44 44 45 45 45 47 49 51 52 52 53 53 53 53 54 55 54 53 52 52 51 51 51 50 50 50 50 50 49 48 47 48 47 47 47 47 46 45
30 33 34 36 37 39 40 42 43 44 45 47 48 50 50 50 52 52 53 53 53 54 55 55 54 54 54 54 53 53 53 52 52 52 52 52 51 51 51 51 51 50 50 49
27 30 32 32 33 35 37 38 39 41 43 47 48 50 50 49 49 50 52 54 54 54 55 56 57 56 56 57 57 56 55 55 55 55 55 55 55 55 54 54 54 53 53 52
21 25 27 29 30 32 33 35 36 37 40 44 46 49 51 49 48 49 51 53 55 56 55 56 57 58 58 59 59 59 58 58 57 57 57 57 58 58 57 58 58 57 56 56
16 19 22 24 26 29 30 32 34 36 38 41 44 47 49 49 49 49 50 52 53 55 56 56 56 57 57 58 60 61 61 60 59 59 59 59 60 60 59 60 60 60 60 59
13 15 17 20 22 24 26 29 30 32 35 38 41 44 47 48 48 48 49 50 52 53 55 56 57 58 58 58 59 60 62 62 62 62 62 61 62 62 62 62 62 62 62 63
11 12 14 17 18 20 22 25 27 29 31 34 38 40 42 43 45 47 48 49 50 51 52 54 56 58 59 59 60 60 61 62 62 63 64 64 64 64 64 65 64 63 64 65
10 11 12 14 16 17 20 22 25 27 29 31 33 36 38 40 42 44 45 46 47 49 51 52 54 56 58 60 60 61 62 62 63 63 64 64 64 65 66 66 66 66 66 66
9 11 12 13 14 16 19 21 22 25 27 29 32 33 33 35 38 41 42 44 45 46 48 50 52 54 56 59 61 62 62 63 63 64 64 64 64 65 65 66 66 67 67 67
8 9 11 12 13 15 18 20 22 24 26 28 30 31 30 33 35 38 40 41 42 42 44 46 48 50 52 54 57 59 61 62 63 64 64 65 65 65 66 66 66 67 68 68
10 10 11 13 14 15 17 18 20 22 24 26 28 29 29 30 32 35 38 39 41 42 43 44 46 48 49 50 52 55 57 59 61 62 63 64 65 66 67 67 68 68 68 69
11 11 12 12 13 15 17 18 20 22 23 25 25 27 27 28 30 31 34 36 38 39 40 42 44 46 47 49 50 52 54 56 58 59 60 62 63 65 66 67 68 68 69 69
13 14 14 14 14 16 17 19 21 23 24 25 26 28 28 30 31 31 33 35 37 39 40 41 42 44 46 48 50 51 53 55 57 58 60 61 61 63 65 66 67 68 69 69
14 15 16 16 16 18 18 17 19 21 22 24 26 28 30 32 34 35 35 36 38 39 40 42 43 44 46 47 49 51 52 54 55 57 59 60 61 63 63 64 65 66 67 68
15 16 17 18 18 19 20 20 21 22 23 25 26 28 31 33 34 35 37 38 38 40 41 42 43 45 46 47 48 50 52 53 55 57 58 59 60 61 61 62 63 64 65 66
17 18 19 21 21 21 21 21 21 23 24 24 26 28 31 33 34 34 36 38 40 41 42 43 44 46 47 48 49 49 50 51 53 55 56 57 58 59 60 60 61 61 62 63
19 20 21 22 23 24 23 24 25 26 27 26 28 30 31 33 35 34 36 38 40 42 43 45 46 47 49 50 51 51 51 52 52 53 55 56 57 58 58 59 59 60 61 62
20 21 23 24 25 25 25 26 28 28 29 30 31 33 34 35 37 38 39 40 41 42 44 46 47 48 49 51 52 52 52 53 53 54 54 55 57 57 58 58 59 60 61 62
21 23 24 25 26 27 28 29 29 30 32 33 34 35 36 38 39 39 40 41 42 43 45 46 47 48 49 50 51 52 52 53 53 53 54 55 55 56 57 59 60 61 62 62
24 26 27 27 28 29 30 31 32 33 34 35 36 37 38 39 40 41 42 43 44 46 47 48 49 49 49 50 51 52 53 54 54 55 55 56 56 57 57 58 59 60 62 62
28 29 30 31 31 31 32 33 33 34 35 36 37 37 38 40 40 42 42 44 45 46 47 48 49 50 51 52 53 53 54 54 55 56 56 56 57 57 58 58 58 58 59 60
29 30 31 32 32 33 33 33 33 34 35 36 37 39 40 41 43 44 45 45 46 47 48 48 49 49 49 50 52 53 53 54 55 56 57 57 57 56 56 56 56 56 56 57
29 31 32 32 33 34 34 34 35 36 37 38 40 41 42 43 45 46 46 47 47 48 47 48 48 49 49 50 51 52 54 54 55 56 56 56 56 56 55 54 54 55 55 55
Wind_Direction
244 242 241 240 242 242 241 241 241 241 242 240 238 238 237 237 237 238 237 237 237 238 238 239 241 241 242 243 244 246 248 249 250 250 251 251 251 252 252 252 253 255 256 257
243 242 241 240 241 242 241 241 241 241 241 241 238 238 238 238 238 238 238 238 238 239 239 240 241 242 243 244 245 247 248 249 250 251 251 251 251 251 252 253 254 255 256 257
244 241 240 240 241 241 241 241 241 242 242 242 240 238 238 239 239 238 238 239 239 240 240 241 241 242 243 244 246 247 247 248 249 250 251 251 252 252 253 254 255 255 256 258
243 239 239 240 241 241 241 241 242 242 243 242 240 240 238 239 240 239 239 239 240 241 241 242 243 243 244 244 246 246 247 248 248 249 250 251 252 253 253 254 255 256 257 258
242 240 239 240 240 241 242 242 243 243 243 243 241 242 241 240 240 239 239 239 240 241 242 243 244 244 244 244 245 246 247 247 248 250 251 251 252 252 253 254 255 256 257 258
242 241 240 240 239 240 241 241 242 242 243 244 242 243 243 242 241 241 241 240 240 241 242 243 244 244 245 245 246 246 247 248 248 250 250 252 253 253 253 254 255 256 257 258
244 243 242 242 241 239 240 239 240 241 242 244 243 243 244 243 243 243 243 242 243 243 243 244 245 246 247 247 247 246 247 248 249 249 250 251 252 253 254 254 255 257 258 258
249 245 243 242 241 242 242 241 242 243 245 244 244 244 244 245 246 246 246 245 245 245 245 245 246 246 248 248 248 248 248 248 249 250 251 251 252 253 253 254 255 257 257 258
253 249 244 243 242 242 241 242 243 245 248 247 246 247 247 248 248 249 249 248 247 247 248 247 247 247 248 249 249 249 249 250 250 251 252 252 252 252 253 254 255 256 258 259
259 260 250 244 245 244 245 245 243 245 248 250 249 249 250 250 251 251 251 252 251 251 251 250 249 249 249 250 251 251 251 252 253 253 254 253 254 254 254 254 255 256 258 258
269 265 255 251 248 248 247 248 246 247 249 252 252 252 252 253 253 253 254 254 254 254 254 254 253 252 253 253 253 254 254 253 253 254 254 255 255 255 255 255 256 257 258 258
277 271 264 261 257 255 254 254 253 253 255 255 257 257 257 258 257 256 255 256 256 256 256 257 256 255 254 254 255 255 256 255 255 255 255 256 257 257 257 257 257 258 258 259
285 277 268 265 265 263 262 261 260 259 258 259 260 259 259 261 263 261 259 257 257 257 258 258 258 257 257 256 256 256 257 257 257 257 257 257 258 258 258 259 258 258 258 259
286 281 278 276 272 270 269 271 268 263 260 261 262 263 262 265 266 265 263 261 260 259 259 260 260 260 259 258 258 258 258 258 259 259 260 260 259 259 259 260 260 260 260 261
291 288 285 281 278 275 274 272 271 269 266 266 266 266 266 269 269 267 266 266 266 264 263 262 262 261 261 260 260 260 260 260 260 260 261 261 261 261 261 261 261 262 262 263
287 286 285 284 283 283 280 275 272 273 272 272 271 269 270 272 273 271 270 270 269 268 267 267 265 264 264 263 262 262 261 261 260 261 261 261 262 263 263 263 263 263 263 264
292 291 289 288 286 285 288 289 283 280 278 277 275 275 275 276 276 275 273 272 271 271 270 269 269 268 267 266 264 263 263 263 262 262 263 263 264 264 264 264 264 264 265 265
295 294 293 292 290 288 295 292 288 284 279 279 280 280 278 278 278 277 276 275 273 272 271 271 270 269 268 267 266 265 266 265 265 265 265 265 265 266 267 267 266 266 266 266
296 295 293 292 292 291 292 293 290 288 285 285 285 283 281 279 278 278 277 276 275 273 273 272 272 271 270 269 269 268 268 268 268 267 267 268 268 268 268 268 267 267 267 267
295 294 293 294 292 292 293 291 290 290 288 288 288 287 285 284 282 282 280 280 278 277 274 273 272 272 272 271 270 270 270 270 270 269 268 268 268 268 268 268 268 268 268 268
297 296 295 294 293 292 295 293 291 291 292 291 290 289 287 286 286 285 284 282 281 279 276 275 274 273 273 272 272 272 271 271 271 271 271 270 270 270 270 269 269 269 269 268
296 295 296 295 294 295 295 293 293 293 292 291 290 289 288 287 286 286 285 283 282 281 280 278 277 276 274 274 274 273 273 273 273 272 272 272 272 272 272 271 271 271 271 270
295 295 295 295 295 295 294 293 293 293 293 292 291 290 290 289 288 286 285 285 284 283 281 280 278 277 276 276 276 276 276 275 274 274 274 274 273 273 274 274 273 273 272 272
292 293 293 293 295 295 295 295 294 293 293 292 292 292 291 291 290 289 288 287 287 285 283 282 280 279 278 278 278 277 277 276 276 276 276 275 275 275 275 275 274 274 274 273
296 295 293 294 295 293 294 295 296 295 294 294 294 293 293 293 292 292 291 290 289 287 285 284 283 282 281 280 280 279 278 277 277 276 276 276 276 276 276 275 275 275 275 274
299 295 294 295 295 294 295 295 295 295 295 294 294 294 294 293 293 293 293 292 290 289 287 285 285 284 283 283 282 281 280 279 277 276 276 276 276 275 275 275 275 276 276 275
Height
5666 5671 5675 5681 5685 5689 5693 5697 5702 5706 5710 5714 5719 5724 5730 5734 5740 5745 5750 5754 5759 5763 5766 5770 5773 5776 5779 5782 5785 5788 5790 5792 5794 5797 5799 5801 5802 5803 5804 5804 5805 5806 5807 5808
5657 5661 5666 5669 5673 5678 5682 5687 5692 5696 5699 5703 5708 5713 5719 5723 5730 5735 5739 5744 5748 5752 5756 5760 5763 5766 5769 5773 5775 5778 5780 5783 5785 5787 5789 5791 5793 5794 5795 5796 5797 5798 5799 5799
5648 5653 5656 5660 5664 5668 5672 5678 5682 5686 5689 5692 5698 5703 5709 5713 5718 5724 5729 5733 5738 5742 5746 5749 5752 5755 5759 5762 5765 5767 5770 5772 5775 5777 5779 5781 5782 5784 5786 5787 5788 5788 5789 5790
5639 5643 5647 5651 5654 5658 5663 5668 5672 5675 5679 5682 5688 5692 5699 5703 5708 5713 5718 5723 5727 5731 5734 5738 5741 5745 5748 5751 5754 5756 5759 5761 5764 5766 5768 5770 5772 5774 5776 5777 5777 5778 5779 5779
5632 5636 5639 5643 5646 5650 5654 5659 5662 5665 5669 5673 5677 5681 5689 5693 5698 5703 5707 5711 5715 5719 5722 5726 5730 5733 5736 5739 5742 5745 5747 5750 5752 5754 5756 5758 5760 5762 5764 5765 5766 5767 5768 5768
5626 5628 5631 5635 5638 5641 5645 5649 5652 5655 5658 5662 5669 5671 5677 5683 5688 5692 5696 5699 5702 5706 5710 5714 5717 5720 5723 5726 5730 5732 5735 5737 5740 5742 5744 5746 5748 5750 5751 5752 5754 5755 5756 5756
5620 5622 5624 5628 5631 5634 5638 5641 5644 5646 5648 5653 5659 5661 5668 5673 5677 5681 5684 5687 5690 5693 5697 5701 5704 5707 5710 5713 5716 5719 5722 5725 5727 5729 5731 5733 5735 5737 5738 5739 5740 5742 5743 5743
5615 5618 5619 5622 5625 5628 5631 5634 5637 5639 5641 5645 5648 5651 5659 5662 5666 5669 5672 5675 5678 5681 5684 5688 5691 5694 5697 5700 5702 5705 5708 5711 5713 5715 5717 5719 5721 5723 5724 5725 5726 5727 5729 5730
5612 5614 5615 5617 5619 5622 5624 5626 5629 5632 5633 5636 5638 5643 5648 5652 5654 5657 5660 5663 5666 5669 5672 5675 5678 5681 5683 5686 5688 5691 5694 5696 5699 5701 5702 5704 5706 5708 5710 5711 5712 5713 5714 5715
5609 5611 5612 5613 5614 5616 5618 5620 5622 5624 5626 5628 5631 5634 5639 5642 5644 5646 5648 5650 5653 5656 5659 5661 5664 5667 5670 5672 5674 5676 5679 5681 5683 5685 5687 5689 5690 5692 5694 5695 5696 5697 5698 5699
5607 5608 5609 5609 5611 5612 5614 5616 5616 5618 5619 5621 5623 5629 5630 5631 5633 5634 5636 5638 5640 5643 5646 5648 5651 5653 5656 5658 5660 5662 5664 5666 5668 5670 5671 5673 5674 5676 5678 5679 5680 5681 5682 5683
5604 5605 5605 5607 5607 5608 5609 5610 5611 5613 5614 5615 5616 5622 5621 5622 5622 5623 5625 5627 5629 5631 5633 5635 5638 5640 5642 5644 5646 5647 5649 5651 5653 5654 5655 5657 5658 5660 5661 5662 5664 5664 5665 5666
5602 5603 5603 5603 5606 5605 5605 5605 5606 5607 5607 5608 5609 5614 5614 5614 5613 5614 5615 5616 5618 5620 5621 5623 5625 5627 5628 5630 5631 5633 5634 5635 5637 5638 5639 5640 5642 5643 5644 5645 5646 5647 5648 5649
5599 5599 5601 5601 5600 5600 5600 5601 5601 5601 5601 5602 5603 5605 5606 5605 5605 5605 5606 5606 5607 5609 5610 5611 5612 5614 5615 5616 5617 5618 5619 5620 5621 5622 5623 5624 5625 5627 5628 5628 5629 5630 5630 5631
5596 5596 5596 5596 5596 5596 5595 5596 5595 5595 5595 5596 5597 5598 5599 5598 5597 5597 5597 5597 5598 5598 5599 5600 5600 5601 5602 5603 5603 5604 5604 5605 5606 5607 5608 5608 5609 5610 5610 5611 5612 5612 5612 5613
5593 5593 5592 5592 5592 5591 5590 5590 5590 5589 5589 5589 5590 5591 5591 5590 5589 5589 5588 5588 5588 5588 5588 5589 5589 5589 5589 5589 5590 5590 5590 5590 5591 5592 5592 5592 5593 5593 5593 5594 5594 5594 5594 5594
5589 5589 5588 5588 5588 5586 5586 5586 5584 5583 5583 5583 5582 5584 5582 5581 5580 5579 5578 5578 5578 5577 5577 5577 5577 5577 5576 5576 5576 5575 5575 5575 5576 5576 5576 5576 5576 5577 5577 5576 5576 5576 5576 5576
5586 5584 5583 5583 5583 5581 5584 5580 5578 5577 5576 5575 5575 5575 5573 5572 5571 5570 5569 5568 5567 5566 5566 5565 5564 5564 5563 5562 5561 5561 5561 5560 5560 5560 5560 5559 5559 5559 5559 5559 5558 5558 5558 5558
5582 5580 5578 5577 5576 5575 5577 5574 5572 5570 5570 5569 5567 5566 5564 5562 5561 5561 5559 5557 5556 5555 5553 5552 5551 5550 5549 5548 5547 5546 5546 5545 5544 5543 5543 5543 5542 5542 5541 5541 5541 5540 5540 5540
5576 5575 5574 5571 5569 5568 5570 5567 5564 5563 5562 5562 5558 5556 5554 5552 5551 5552 5549 5546 5544 5543 5541 5539 5538 5536 5535 5533 5532 5531 5531 5530 5528 5527 5527 5526 5525 5524 5524 5523 5523 5522 5522 5521
5571 5568 5567 5564 5561 5561 5562 5558 5556 5556 5555 5551 5549 5546 5544 5542 5540 5539 5536 5534 5532 5530 5528 5525 5524 5522 5520 5518 5517 5516 5515 5514 5512 5511 5510 5509 5508 5507 5506 5505 5504 5503 5503 5503
5565 5562 5560 5557 5555 5556 5553 5549 5548 5546 5543 5540 5538 5536 5533 5531 5529 5526 5524 5521 5519 5516 5514 5511 5508 5507 5505 5503 5501 5500 5499 5497 5496 5494 5493 5492 5490 5489 5487 5486 5485 5484 5484 5483
5558 5556 5553 5551 5550 5547 5543 5540 5538 5535 5532 5530 5527 5524 5522 5519 5516 5514 5511 5508 5505 5502 5499 5496 5493 5491 5490 5487 5485 5483 5482 5481 5479 5477 5476 5475 5473 5471 5470 5468 5467 5466 5465 5464
5551 5548 5544 5542 5541 5538 5534 5530 5528 5524 5521 5518 5515 5513 5509 5506 5503 5500 5497 5494 5491 5487 5484 5481 5478 5475 5474 5472 5469 5467 5465 5464 5462 5460 5459 5457 5455 5454 5452 5450 5449 5447 5446 5445
5542 5538 5535 5532 5530 5527 5524 5521 5518 5514 5511 5508 5505 5501 5497 5493 5490 5486 5483 5480 5476 5472 5469 5465 5462 5459 5457 5455 5452 5450 5448 5446 5444 5442 5440 5439 5438 5436 5434 5433 5431 5430 5428 5427
5533 5528 5525 5522 5520 5516 5514 5511 5507 5503 5500 5496 5493 5489 5485 5480 5476 5472 5468 5464 5460 5456 5453 5449 5446 5443 5441 5438 5435 5433 5430 5427 5425 5423 5422 5420 5419 5418 5416 5415 5414 5412 5411 5410